• In Czech Republic
  • List of Countries
  • For 7 days
  • Water Temperature
  • Satellite Maps
  • Weather Map
  • Weather Widgets
  • user-avatar
    Login

    Hourly Weather Eisenstadt

    Today, 20 July, Friday

    Time Temperature Precipitation Wind Pressure Humidity
    00:00 +18°C° 0 mm 2 mps 722 mmHg 73%
    01:00 +17°C° 0 mm 2 mps 722 mmHg 75%
    02:00 +17°C° 0 mm 2 mps 722 mmHg 77%
    03:00 +16°C° 0 mm 2 mps 722 mmHg 79%
    04:00 +16°C° 0 mm 2 mps 722 mmHg 81%
    05:00 +18°C° 0 mm 2 mps 722 mmHg 76%
    06:00 +19°C° 0 mm 2 mps 722 mmHg 71%
    07:00 +21°C° 0 mm 2 mps 722 mmHg 65%
    08:00 +24°C° 0 mm 2 mps 722 mmHg 58%
    09:00 +26°C° 0 mm 3 mps 722 mmHg 52%
    10:00 +27°C° 0 mm 3 mps 722 mmHg 46%
    11:00 +28°C° 0 mm 3 mps 722 mmHg 43%
    12:00 +29°C° 0 mm 3 mps 722 mmHg 41%
    13:00 +29°C° 0 mm 3 mps 722 mmHg 39%
    14:00 +29°C° 0 mm 3 mps 721 mmHg 40%
    15:00 +29°C° 0 mm 2 mps 721 mmHg 41%
    16:00 +29°C° 0 mm 2 mps 721 mmHg 43%
    17:00 +27°C° 0 mm 2 mps 721 mmHg 48%
    18:00 +26°C° 0 mm 2 mps 721 mmHg 54%
    19:00 +24°C° 0 mm 1 mps 720 mmHg 60%
    20:00 +23°C° 0 mm 1 mps 720 mmHg 64%
    21:00 +22°C° 0 mm 1 mps 721 mmHg 68%
    22:00 +20°C° 0 mm 1 mps 721 mmHg 72%
    23:00 +20°C° 0 mm 1 mps 721 mmHg 74%

    Tomorrow, 21 July, Saturday

    Time Temperature Precipitation Wind Pressure Humidity
    00:00 +19°C° 0 mm 1 mps 721 mmHg 76%
    01:00 +17°C° 0 mm 0 mps 721 mmHg 78%
    02:00 +16°C° 0 mm 0 mps 720 mmHg 80%
    03:00 +16°C° 0 mm 0 mps 720 mmHg 82%
    04:00 +16°C° 0 mm 0 mps 720 mmHg 84%
    05:00 +17°C° 0 mm 0 mps 720 mmHg 80%
    06:00 +21°C° 0 mm 1 mps 720 mmHg 75%
    07:00 +22°C° 0 mm 1 mps 720 mmHg 70%
    08:00 +23°C° 0.1 mm 1 mps 720 mmHg 68%
    09:00 +24°C° 0.1 mm 2 mps 720 mmHg 66%
    10:00 +25°C° 0.1 mm 2 mps 720 mmHg 64%
    11:00 +26°C° 0.8 mm 2 mps 720 mmHg 64%
    12:00 +26°C° 0.8 mm 2 mps 720 mmHg 63%
    13:00 +27°C° 0.8 mm 2 mps 719 mmHg 63%
    14:00 +26°C° 1.2 mm 1 mps 719 mmHg 65%
    15:00 +26°C° 1.2 mm 1 mps 719 mmHg 67%
    16:00 +26°C° 1.2 mm 1 mps 719 mmHg 69%
    17:00 +25°C° 0.5 mm 1 mps 719 mmHg 73%
    18:00 +24°C° 0.5 mm 2 mps 719 mmHg 76%
    19:00 +23°C° 0.5 mm 2 mps 718 mmHg 80%
    20:00 +21°C° 1.8 mm 2 mps 719 mmHg 84%
    21:00 +20°C° 1.8 mm 2 mps 719 mmHg 88%
    22:00 +19°C° 1.8 mm 2 mps 719 mmHg 92%
    23:00 +18°C° 0.7 mm 2 mps 719 mmHg 92%

    Day after tomorrow, 22 July, Sunday

    Time Temperature Precipitation Wind Pressure Humidity
    00:00 +19°C° 0.7 mm 1 mps 719 mmHg 92%
    01:00 +19°C° 0.7 mm 1 mps 719 mmHg 93%
    02:00 +18°C° 0.2 mm 2 mps 719 mmHg 92%
    03:00 +17°C° 0.2 mm 2 mps 719 mmHg 92%
    04:00 +17°C° 0.2 mm 2 mps 719 mmHg 91%
    05:00 +18°C° 0 mm 2 mps 719 mmHg 89%
    06:00 +19°C° 0 mm 2 mps 719 mmHg 86%
    07:00 +20°C° 0 mm 3 mps 719 mmHg 83%
    08:00 +21°C° 0.4 mm 3 mps 719 mmHg 78%
    09:00 +22°C° 0.4 mm 3 mps 719 mmHg 73%
    10:00 +25°C° 0.4 mm 3 mps 719 mmHg 68%
    11:00 +25°C° 0.6 mm 3 mps 719 mmHg 65%
    12:00 +26°C° 0.6 mm 3 mps 719 mmHg 63%
    13:00 +27°C° 0.6 mm 3 mps 719 mmHg 60%
    14:00 +27°C° 0.7 mm 2 mps 719 mmHg 60%
    15:00 +27°C° 0.7 mm 2 mps 718 mmHg 61%
    16:00 +26°C° 0.7 mm 2 mps 718 mmHg 61%
    17:00 +25°C° 0.2 mm 2 mps 718 mmHg 65%
    18:00 +24°C° 0.2 mm 2 mps 718 mmHg 69%
    19:00 +23°C° 0.2 mm 1 mps 718 mmHg 73%
    20:00 +21°C° 0 mm 2 mps 718 mmHg 75%
    21:00 +20°C° 0 mm 2 mps 718 mmHg 78%
    22:00 +19°C° 0 mm 2 mps 718 mmHg 80%
    23:00 +19°C° 0 mm 2 mps 718 mmHg 81%

    23 July, Monday

    Time Temperature Precipitation Wind Pressure Humidity
    00:00 +18°C° 0 mm 2 mps 718 mmHg 82%
    01:00 +18°C° 0 mm 2 mps 718 mmHg 83%
    02:00 +18°C° 0 mm 2 mps 718 mmHg 83%
    03:00 +18°C° 0 mm 2 mps 718 mmHg 83%
    04:00 +17°C° 0 mm 2 mps 718 mmHg 83%
    05:00 +18°C° 0.1 mm 3 mps 718 mmHg 81%
    06:00 +19°C° 0.1 mm 3 mps 718 mmHg 79%
    07:00 +20°C° 0.1 mm 4 mps 718 mmHg 77%
    08:00 +20°C° 0.4 mm 4 mps 718 mmHg 77%
    09:00 +20°C° 0.4 mm 4 mps 718 mmHg 77%
    10:00 +21°C° 0.4 mm 5 mps 719 mmHg 78%
    11:00 +22°C° 0.1 mm 5 mps 718 mmHg 72%
    12:00 +22°C° 0.1 mm 5 mps 718 mmHg 66%
    13:00 +23°C° 0.1 mm 5 mps 718 mmHg 60%
    14:00 +25°C° 0 mm 5 mps 718 mmHg 57%
    15:00 +26°C° 0 mm 5 mps 718 mmHg 54%
    16:00 +26°C° 0 mm 5 mps 718 mmHg 52%
    17:00 +25°C° 0 mm 5 mps 718 mmHg 56%
    18:00 +23°C° 0 mm 4 mps 718 mmHg 60%
    19:00 +22°C° 0 mm 4 mps 719 mmHg 65%
    20:00 +21°C° 0 mm 4 mps 719 mmHg 68%
    21:00 +21°C° 0 mm 4 mps 719 mmHg 71%
    22:00 +20°C° 0 mm 4 mps 720 mmHg 74%
    23:00 +19°C° 0 mm 4 mps 720 mmHg 75%

    24 July, Tuesday

    Time Temperature Precipitation Wind Pressure Humidity
    00:00 +19°C° 0 mm 4 mps 719 mmHg 77%
    01:00 +18°C° 0 mm 4 mps 719 mmHg 78%
    02:00 +18°C° 0 mm 4 mps 720 mmHg 79%
    03:00 +18°C° 0 mm 4 mps 720 mmHg 79%
    04:00 +17°C° 0 mm 4 mps 720 mmHg 79%
    05:00 +19°C° 0 mm 4 mps 720 mmHg 75%
    06:00 +20°C° 0 mm 5 mps 720 mmHg 70%
    07:00 +21°C° 0 mm 5 mps 720 mmHg 66%
    08:00 +22°C° 0 mm 5 mps 720 mmHg 60%
    09:00 +25°C° 0 mm 5 mps 720 mmHg 53%
    10:00 +26°C° 0 mm 5 mps 720 mmHg 47%
    11:00 +27°C° 0 mm 5 mps 720 mmHg 45%
    12:00 +28°C° 0 mm 5 mps 720 mmHg 43%
    13:00 +29°C° 0 mm 5 mps 719 mmHg 41%
    14:00 +29°C° 0.1 mm 4 mps 719 mmHg 43%
    15:00 +29°C° 0.1 mm 4 mps 719 mmHg 45%
    16:00 +29°C° 0.1 mm 4 mps 719 mmHg 47%
    17:00 +27°C° 0.2 mm 3 mps 719 mmHg 53%
    18:00 +26°C° 0.2 mm 2 mps 719 mmHg 60%
    19:00 +24°C° 0.2 mm 2 mps 719 mmHg 66%
    20:00 +23°C° 0 mm 2 mps 719 mmHg 70%
    21:00 +21°C° 0 mm 2 mps 719 mmHg 73%
    22:00 +20°C° 0 mm 2 mps 719 mmHg 77%
    23:00 +19°C° 0 mm 2 mps 719 mmHg 79%

    25 July, Wednesday

    Time Temperature Precipitation Wind Pressure Humidity
    00:00 +19°C° 0 mm 2 mps 719 mmHg 81%
    01:00 +18°C° 0 mm 2 mps 719 mmHg 83%
    02:00 +18°C° 0 mm 2 mps 719 mmHg 84%
    03:00 +17°C° 0 mm 2 mps 719 mmHg 85%
    04:00 +17°C° 0 mm 2 mps 719 mmHg 87%
    05:00 +18°C° 0 mm 2 mps 719 mmHg 82%
    06:00 +20°C° 0 mm 2 mps 720 mmHg 78%
    07:00 +21°C° 0 mm 2 mps 720 mmHg 73%
    08:00 +24°C° 0.1 mm 3 mps 720 mmHg 66%
    09:00 +25°C° 0.1 mm 3 mps 720 mmHg 59%
    10:00 +27°C° 0.1 mm 3 mps 720 mmHg 53%
    11:00 +28°C° 0.1 mm 3 mps 720 mmHg 50%
    12:00 +28°C° 0.1 mm 3 mps 720 mmHg 47%
    13:00 +29°C° 0.1 mm 3 mps 720 mmHg 45%
    14:00 +29°C° 0 mm 3 mps 719 mmHg 46%
    15:00 +29°C° 0 mm 3 mps 719 mmHg 47%
    16:00 +28°C° 0 mm 2 mps 719 mmHg 48%
    17:00 +27°C° 0.1 mm 2 mps 719 mmHg 54%
    18:00 +26°C° 0.1 mm 2 mps 719 mmHg 59%
    19:00 +24°C° 0.1 mm 2 mps 719 mmHg 65%
    20:00 +23°C° 0 mm 2 mps 719 mmHg 68%
    21:00 +21°C° 0 mm 2 mps 720 mmHg 71%
    22:00 +20°C° 0 mm 2 mps 720 mmHg 74%
    23:00 +19°C° 0 mm 2 mps 720 mmHg 75%
    Show more